User: anonymous   Login
Location: Auckland
(36.8670°S, 174.7670°E)
Time: 20:35:11
(UTC+13:00)
Language:

MOS 1 - Orbit

View from above orbital plane
View from above orbital plane
View from above satellite
View from above satellite

Ground track
Ground track

The orbit data is extracted from the following two-line orbital elements,

1 17527U 87018A   19316.72679907 -.00000144 +00000-0 -64121-4 0  9992
2 17527 099.1882 352.8570 0009055 036.8724 101.0185 14.02540222672395
Epoch (UTC): 12 November 2019 17:26:35
Eccentricity: 0.0009055
inclination: 99.1882°
perigee height: 878 km
apogee height: 891 km
right ascension of ascending node: 352.8570°
argument of perigee: 36.8724°
revolutions per day: 14.02540222
mean anomaly at epoch: 101.0185°
orbit number at epoch: 67239

The dashed part of the orbit path shows where the satellite is in the earth's shadow,  

DLR